Regional Weather Roundup
Issued by NWS

Home | Current Version | Previous Version | Text Only | Print | Product List | Glossary Off
Versions: 1 2 3 4 5 6 7 8 9 10 11 12 13 14 15 16 17 18 19 20 21 22 23 24 25 26 27 28 29 30 31 32 33 34 35 36 37 38 39 40 41 42 43 44 45 46 47 48 49 50

113
ASUS43 KTOP 090259
RWRKS

WEATHER ROUNDUP FOR KANSAS
NATIONAL WEATHER SERVICE GOODLAND KS
900 PM CST MON FEB 08 2016

NOTE:  "FAIR" INDICATES FEW OR NO CLOUDS BELOW 12,000 FEET WITH NO
SIGNIFICANT WEATHER AND/OR OBSTRUCTIONS TO VISIBILITY.

KSZ001>006-013>018-027>032-041>047-090400-
NORTHWEST KANSAS

CITY           SKY/WX    TMP DP  RH WIND       PRES   REMARKS
GOODLAND       CLOUDY    25  21  85 NW5       30.27S
HAYS           CLEAR     30  14  51 W12       30.25S WCI  21
HILL CITY      CLOUDY    30  20  66 W9        30.26S
RUSSELL        CLEAR     30  20  66 W14       30.22F WCI  19
$$

KSZ061>065-074>080-084>089-090400-
SOUTHWEST KANSAS

CITY           SKY/WX    TMP DP  RH WIND       PRES   REMARKS
DODGE CITY     PTCLDY    30  14  51 NW12      30.28F WCI  20
ELKHART          N/A    N/A N/A N/A MISG        N/A
GARDEN CITY    CLEAR     30  18  60 NW10      30.31R WCI  21
GREAT BEND     CLEAR     30  16  55 NW14      30.25S WCI  20
LIBERAL        CLEAR     30  10  43 NW5       30.32F
$$

KSZ066>073-081>083-090>101-090400-
SOUTHEAST KANSAS

CITY           SKY/WX    TMP DP  RH WIND       PRES   REMARKS
CHANUTE        PTCLDY    33  16  49 NW10      30.15R WCI  25
COFFEYVILLE    PTCLDY    35  16  45 NW8       30.18R
HUTCHINSON     CLEAR     33  19  56 W14       30.22S WCI  23
MEDICINE LODGE   N/A     32  13  45 NW7       30.26S
NEWTON         CLEAR     32  16  51 NW15      30.20R WCI  22
PARSONS        MOCLDY    33  16  49 NW7       30.17S
WICHITA INTL   PTCLDY    34  19  54 NW16      30.21S WCI  24
WICHITA JABRA  CLEAR     33  18  53 NW13      30.20R WCI  24
WINFIELD       CLEAR     32  18  56 NW9       30.22S
$$

KSZ007>012-019>026-033>040-048>060-102>105-090400-
NORTHEAST KANSAS

CITY           SKY/WX    TMP DP  RH WIND       PRES   REMARKS
CONCORDIA      CLEAR     31  19  61 W12       30.19S WCI  22
EMPORIA        MOCLDY    33  17  51 NW12      30.15S WCI  24
LAWRENCE       CLOUDY    31  17  56 NW15      30.12F WCI  20
MANHATTAN      CLOUDY    35  19  52 NW7       30.17S
OLATHE IND     MOCLDY    29  17  61 NW9       30.11S
OLATHE EXE     PTCLDY    28  15  58 NW15      30.09S WCI  16
SALINA         CLEAR     33  18  53 W12       30.21S WCI  24
TOPEKA BILLARD CLOUDY    32  17  54 W6        30.13R
TOPEKA FORBES  CLOUDY    30  18  60 NW7       30.12S
$$




USA.gov is the U.S. government's official web portal to all federal, state and local government web resources and services.